DateTimeUTC,F1_A11,F1_S11,BsB_S11,BsG_S11,BsR_S11,BbsB_S11,BbsG_S11,BbsR_S11,BaB_A11,BaG_A11,BaR_A11,Tu_S11,T_S11,Uu_S11,U_S11,P_S11,T1_A11
2021-11-25T02:00:00Z,00000200,21000000,,,,,,,0000.13,0000.22,-000.06,19.3,26.0,,00.0,0636.7,30.9
2021-11-25T02:01:00Z,00000200,21000000,,,,,,,-000.08,0000.17,0000.35,19.3,26.1,,00.0,0636.7,30.9
2021-11-25T02:02:00Z,00000200,21000000,,,,,,,0000.23,0000.25,0000.12,19.4,26.1,,00.0,0636.7,31.0
2021-11-25T02:03:00Z,00000200,61000000,,,,,,,0000.11,-000.26,0000.07,19.4,26.1,,00.0,0636.7,31.0
2021-11-25T02:04:00Z,00000200,41000000,0000.62,-000.00,-000.14,-000.74,-000.22,-000.17,-000.30,0000.00,-000.41,19.7,26.0,,00.0,0637.6,30.9
2021-11-25T02:05:00Z,00000200,01000000,0000.21,0000.21,0000.05,0000.44,0000.03,-000.25,0000.32,0000.18,0000.31,19.7,26.1,,00.0,0637.7,30.9
2021-11-25T02:06:00Z,00000200,01000000,-000.33,-000.17,-000.22,-000.42,-000.28,0000.18,-000.12,-000.18,0000.12,19.7,26.0,,00.0,0637.7,30.9
2021-11-25T02:07:00Z,00000200,01000000,0000.34,-000.37,-000.06,0000.24,0000.04,-000.09,0000.21,0000.35,-000.18,19.6,26.0,,00.0,0637.7,30.9
2021-11-25T02:08:00Z,00000200,01000000,0000.35,-000.17,-000.04,0000.15,0000.06,0000.14,0000.23,0000.05,0000.28,19.6,25.9,,00.0,0637.7,30.9
2021-11-25T02:09:00Z,00000200,01000000,0000.60,0000.07,-000.17,-000.57,0000.21,0000.16,-000.37,-000.09,0000.01,19.5,25.9,,00.0,0637.7,30.9
2021-11-25T02:10:00Z,00000200,01000000,-000.09,-000.11,-000.18,-000.30,-000.24,-000.31,0000.30,0000.34,-000.12,19.5,25.9,,00.0,0637.7,30.9
2021-11-25T02:11:00Z,00000200,01000000,-000.07,0000.06,0000.31,0000.63,0000.07,-000.20,0000.22,0000.08,0000.05,19.4,25.8,,00.0,0637.7,30.9
2021-11-25T02:12:00Z,00000200,01000000,-000.30,0000.00,-000.03,0000.09,-000.34,-000.33,0000.42,0000.00,0000.29,19.5,25.8,,00.0,0637.7,30.9
2021-11-25T02:13:00Z,00000200,01000000,0000.87,-000.08,0000.14,-000.43,0000.06,-000.27,0000.08,0000.06,0000.29,19.5,25.8,,00.0,0637.8,30.9
2021-11-25T02:14:00Z,00000200,01000000,0000.52,0000.20,-000.07,-000.48,0000.11,-000.08,-000.04,0000.31,-000.05,19.6,25.9,,00.0,0637.8,30.9
2021-11-25T02:15:00Z,00000200,01000000,0000.45,-000.25,-000.19,-000.15,0000.14,-000.27,0000.01,0000.05,-000.04,19.7,25.9,,00.0,0637.9,30.9
2021-11-25T02:16:00Z,00000200,01000000,0000.34,0000.13,-000.30,-000.25,0000.03,-000.37,0000.12,-000.13,0000.03,19.8,25.9,,00.0,0637.9,31.0
2021-11-25T02:17:00Z,00000200,01000000,-000.32,-000.04,-000.19,0000.13,-000.04,-000.17,-000.09,0000.15,-000.22,19.8,26.0,,00.0,0637.9,31.0
2021-11-25T02:18:00Z,00000200,01000000,0000.04,0000.13,0000.00,0000.10,-000.05,-000.15,0000.31,-000.06,0000.29,19.9,26.0,,00.0,0638.0,31.0
2021-11-25T02:19:00Z,00000200,01000000,-000.14,0000.20,0000.15,0000.13,0000.10,0000.29,0000.25,0000.21,0000.10,19.9,26.0,,00.0,0638.0,31.0
2021-11-25T02:20:00Z,00000200,01000000,0000.34,0000.02,-000.41,0000.39,0000.27,-000.40,-000.28,0000.06,0000.11,19.9,26.1,,00.0,0638.0,31.0
2021-11-25T02:21:00Z,00000200,01000000,-000.21,0000.35,-000.18,-000.17,0000.15,-000.28,0000.32,-000.06,-000.10,19.8,26.0,,00.0,0638.0,30.9
2021-11-25T02:22:00Z,00000200,01000000,0000.42,0000.11,0000.14,0000.29,0000.16,-000.27,-000.14,0000.22,0000.24,19.7,26.0,,00.0,0638.0,30.9
2021-11-25T02:23:00Z,00000200,01000000,-000.50,0000.24,0000.15,-000.42,0000.37,-000.06,0000.20,0000.07,-000.28,19.7,26.0,,00.0,0637.9,30.9
2021-11-25T02:24:00Z,00000200,01000000,-000.05,0000.01,-000.42,0000.25,0000.21,-000.35,-000.25,-000.18,0000.08,19.6,26.0,,00.0,0637.9,30.9
2021-11-25T02:25:00Z,00000200,01000000,0000.76,-000.09,-000.12,0000.00,-000.26,-000.12,0000.18,0000.30,0000.12,19.6,25.9,,00.0,0637.9,30.9
2021-11-25T02:26:00Z,00000200,01000000,0000.69,0000.14,0000.06,0000.45,0000.08,-000.04,0000.60,0000.07,0000.47,19.6,25.8,,00.0,0637.9,30.9
2021-11-25T02:27:00Z,00000200,01000000,-000.10,0000.02,-000.14,-000.14,-000.26,-000.26,-000.07,0000.38,-000.31,19.6,25.9,,00.0,0637.9,30.9
2021-11-25T02:28:00Z,00000200,01000000,0000.27,0000.26,0000.04,-000.18,-000.11,-000.52,0000.16,-000.11,0000.45,19.6,25.9,,00.0,0637.9,30.9
2021-11-25T02:29:00Z,00000200,01000000,0000.24,0000.21,0000.37,0000.85,0000.07,-000.07,0000.06,0000.11,0000.01,19.7,25.9,,00.0,0637.9,30.9
2021-11-25T02:30:00Z,00000200,01000000,0000.87,-000.01,-000.05,0000.26,-000.39,-000.02,0000.26,0000.34,0000.05,19.8,25.9,,00.0,0638.0,31.0
2021-11-25T02:31:00Z,00000200,01000000,0000.58,0000.25,0000.13,-000.16,-000.17,-000.20,-000.09,-000.11,0000.01,19.8,26.0,,00.0,0638.0,31.0
2021-11-25T02:32:00Z,00000200,01000000,-000.02,0000.35,0000.14,-000.27,0000.28,-000.35,0000.31,0000.34,-000.00,19.9,26.0,,00.0,0638.0,31.0
2021-11-25T02:33:00Z,00000200,01000000,0000.65,0000.27,0000.13,-000.31,0000.43,-000.03,-000.10,-000.01,0000.02,19.9,26.0,,00.0,0638.0,31.0
2021-11-25T02:34:00Z,00000200,01000000,-000.81,0000.17,0000.16,0000.12,-000.08,-000.32,-000.06,-000.20,-000.03,19.9,26.1,,00.0,0638.0,31.0
2021-11-25T02:35:00Z,00000200,01000000,0000.64,0000.33,0000.14,0000.12,0000.03,-000.28,0000.32,0000.27,0000.18,19.8,26.0,,00.0,0638.1,31.0
2021-11-25T02:36:00Z,00000200,01000000,0000.60,0000.12,-000.06,0000.15,-000.00,-000.39,-000.03,0000.12,0000.33,19.8,26.0,,00.0,0638.1,30.9
2021-11-25T02:37:00Z,00000200,01000000,0000.10,-000.06,0000.14,0000.25,-000.04,-000.18,0000.21,-000.16,-000.13,19.7,26.0,,00.0,0638.1,30.9
2021-11-25T02:38:00Z,00000200,01000000,-000.34,0000.11,0000.25,0000.10,0000.04,-000.01,0000.41,0000.20,0000.15,19.7,26.0,,00.0,0638.1,30.9
2021-11-25T02:39:00Z,00000200,01000000,-000.33,0000.23,0000.19,-000.14,0000.11,-000.01,0000.11,0000.36,-000.07,19.6,25.9,,00.0,0638.1,30.9
2021-11-25T02:40:00Z,00000200,01000000,0000.06,0000.47,0000.17,-000.33,0000.03,-000.12,0000.22,0000.07,0000.19,19.6,25.9,,00.0,0638.1,30.9
2021-11-25T02:41:00Z,00000200,01000000,0000.54,0000.10,0000.05,-000.47,0000.31,-000.17,0000.07,0000.31,0000.17,19.6,25.9,,00.0,0638.1,30.9
2021-11-25T02:42:00Z,00000200,01000000,0000.38,0000.31,-000.09,0000.38,0000.03,-000.15,0000.26,-000.06,-000.04,19.6,25.9,,00.0,0638.1,30.9
2021-11-25T02:43:00Z,00000200,01000000,0000.06,0000.62,0000.17,-000.26,0000.18,0000.02,0000.07,0000.17,0000.15,19.6,25.9,,00.0,0638.2,30.9
2021-11-25T02:44:00Z,00000200,01000000,0000.80,0000.06,0000.03,0000.07,-000.03,-000.51,-000.03,0000.35,-000.18,19.7,25.9,,00.0,0638.2,30.9
2021-11-25T02:45:00Z,00000200,01000000,0001.16,0000.18,-000.04,0000.65,-000.16,0000.05,0000.23,0000.07,0000.42,19.8,25.9,,00.0,0638.2,30.9
2021-11-25T02:46:00Z,00000200,01000000,0000.22,0000.15,-000.23,0000.95,0000.24,0000.05,0000.12,0000.14,0000.20,19.8,26.0,,00.0,0638.3,30.9
2021-11-25T02:47:00Z,00000200,01000000,-000.26,0000.41,0000.10,-000.13,0000.41,-000.09,0000.27,0000.10,0000.30,19.9,26.0,,00.0,0638.3,31.0
2021-11-25T02:48:00Z,00000200,01000000,0000.47,-000.10,-000.01,0000.10,0000.26,-000.11,-000.07,0000.02,-000.36,19.9,26.0,,00.0,0638.4,31.0
2021-11-25T02:49:00Z,00000200,01000000,0000.44,0000.23,0000.41,-000.33,-000.01,0000.18,0000.08,-000.35,0000.03,19.9,26.1,,00.0,0638.4,31.0
2021-11-25T02:50:00Z,00000200,01000000,-000.14,0000.33,0000.01,-000.30,-000.04,-000.17,0000.07,0000.10,-000.01,19.9,26.0,,00.0,0638.4,30.9
2021-11-25T02:51:00Z,00000200,01000000,0000.12,0000.27,0000.28,0000.44,-000.07,0000.10,0000.18,0000.32,-000.02,19.8,26.0,,00.0,0638.4,30.9
2021-11-25T02:52:00Z,00000200,01000000,0000.23,0000.04,0000.16,-000.12,0000.09,0000.10,0000.27,-000.15,-000.04,19.7,26.0,,00.0,0638.5,30.9
2021-11-25T02:53:00Z,00000200,01000000,0000.32,0000.46,0000.05,0000.34,-000.10,-000.01,-000.42,-000.02,0000.16,19.7,26.0,,00.0,0638.5,30.9
2021-11-25T02:54:00Z,00000200,01000000,0000.37,0000.45,0000.05,0000.10,-000.34,-000.45,0000.28,0000.06,-000.04,19.6,26.0,,00.0,0638.5,30.9
2021-11-25T02:55:00Z,00000200,01010000,0000.25,0000.68,0000.05,0000.04,0000.11,-000.18,0000.21,0000.37,0000.18,19.6,25.9,,00.0,0638.5,30.9
2021-11-25T02:56:00Z,00000200,01000000,0000.13,0000.45,0000.27,0000.52,0000.09,-000.20,0000.04,0000.26,-000.25,19.6,25.9,,00.0,0638.5,30.9
2021-11-25T02:57:00Z,00000200,41000000,,,,,,,0000.23,0000.60,0000.55,19.6,25.9,,00.0,0638.5,30.9
2021-11-25T02:58:00Z,00000200,61000000,,,,,,,-000.23,-000.92,-000.43,19.4,26.0,,00.0,0637.7,30.9
2021-11-25T02:59:00Z,00000200,21000000,,,,,,,-000.10,0000.09,0000.12,19.4,26.1,,00.0,0637.7,30.9
